Date,TemperatureHighF,TemperatureAvgF,TemperatureLowF,DewpointHighF,DewpointAvgF,DewpointLowF,HumidityHigh,HumidityAvg,HumidityLow,PressureMaxIn,PressureMinIn,WindSpeedMaxMPH,WindSpeedAvgMPH,GustSpeedMaxMPH,PrecipitationSumIn
2014-2-1,45,36,30,41,34,30,99,94,82,29.52,29.41,2,0,2,0.00
2014-2-2,43,35,28,40,32,26,99,91,74,29.42,29.28,7,1,7,0.01
2014-2-3,46,31,25,35,25,19,97,79,54,29.53,29.33,6,1,6,0.01
2014-2-4,41,30,22,26,20,13,86,69,54,29.77,29.52,6,1,6,0.00
2014-2-5,40,24,15,18,9,2,82,57,26,29.82,29.66,8,2,8,0.00
2014-2-6,34,23,13,19,9,5,77,57,34,29.66,29.11,4,1,4,0.00
2014-2-7,39,28,20,23,17,14,81,65,44,29.72,29.10,32,2,8,0.00
2014-2-8,41,28,18,27,19,14,87,69,43,29.38,29.16,5,1,5,0.00
2014-2-9,40,34,30,35,31,27,94,88,79,29.43,29.27,4,0,3,0.04
2014-2-10,48,42,34,45,40,33,99,94,89,29.38,29.29,13,3,13,0.02
2014-2-11,52,44,36,44,41,35,99,88,68,29.53,28.89,15,3,15,0.14
2014-2-12,52,48,44,48,42,38,95,80,65,29.24,28.74,21,5,21,0.01
2014-2-13,57,47,41,51,42,36,97,83,61,29.39,29.02,8,2,8,0.11
2014-2-14,57,47,42,47,42,35,95,83,67,29.28,28.87,15,3,15,0.05
2014-2-15,49,42,35,45,39,28,97,90,74,29.47,28.55,17,3,17,0.17
2014-2-16,47,41,39,41,37,35,98,86,69,29.27,28.92,14,6,14,0.38
2014-2-17,46,40,36,44,39,36,98,96,90,29.25,29.00,10,3,9,0.71
2014-2-18,48,42,36,45,39,34,95,90,84,29.26,28.84,18,4,18,0.01
2014-2-19,50,40,35,44,37,34,96,89,71,29.45,29.16,13,2,13,0.05
2014-2-20,51,42,37,43,37,31,98,84,57,29.52,29.31,12,3,12,0.01
2014-2-21,44,38,29,41,34,27,98,86,66,29.62,29.52,4,1,4,0.19
2014-2-22,37,33,29,36,32,27,99,96,92,29.57,29.36,4,1,4,0.39
2014-2-23,39,37,34,39,36,34,99,99,99,29.38,29.26,6,1,6,0.18
2014-2-24,40,37,34,40,36,34,99,99,99,29.46,29.36,2,1,2,0.13
2014-2-25,56,40,34,46,37,32,99,90,65,29.48,29.33,6,1,6,0.15
2014-2-26,63,44,33,46,38,32,99,82,49,29.33,29.04,7,1,7,0.00
2014-2-27,53,43,34,42,38,33,96,84,64,29.09,28.97,5,1,5,0.00
2014-2-28,59,47,37,48,38,31,98,74,49,29.08,28.83,10,2,10,0.00